Miscellaneous Local Product
Issued by NWS Hastings, NE

Home | Current Version | Previous Version | Graphics & Text | Print | Product List | Glossary On
Versions: 1 2 3 4 5 6 7 8 9 10 11 12 13 14 15 16 17 18 19 20 21 22 23 24 25 26 27 28 29 30 31 32 33 34 35 36 37 38 39 40 41 42 43 44 45 46 47 48 49 50
000
AXUS43 KGID 191902
MISGRI

GID CWA HOURLY WEATHER ROUNDUP
NATIONAL WEATHER SERVICE HASTINGS NE
200 PM CDT SAT APR 19 2014

NOTE: "FAIR" INDICATES FEW OR NO CLOUDS BELOW 12,000 FEET WITH NO
SIGNIFICANT WEATHER AND/OR OBSTRUCTIONS TO VISIBILITY.

...SOUTH CENTRAL NEBRASKA...

CITY           SKY/WX    TMP DP  RH WIND       PRES   REMARKS
GRAND ISLAND   CLOUDY    71  48  43 S7        29.98S
HASTINGS       CLOUDY    73  47  39 S12G18    29.96F
KEARNEY        CLOUDY    66  48  52 CALM      29.98S
ORD            CLOUDY    66  47  50 MISG      29.99S
YORK           PTSUNNY   73  48  40 S18G24    29.98S
AURORA         CLOUDY    72  49  44 S13       29.98S
LEXINGTON      CLOUDY    65  49  57 NE12      29.98S
HOLDREGE       CLOUDY    66  47  50 CALM      29.98R
HEBRON         PTSUNNY   78  47  33 S17G28    29.97F

...NEBRASKA PANHANDLE...

CITY           SKY/WX    TMP DP  RH WIND       PRES   REMARKS
CHADRON        PTSUNNY   60  34  37 E7        30.04F
ALLIANCE       CLOUDY    61  26  26 E10       30.05F
SCOTTSBLUFF    PTSUNNY   61  30  31 SE7G16    30.05F
SIDNEY         CLOUDY    58  31  35 E12       30.07F

...WESTERN AND NORTH CENTRAL NEBRASKA...

CITY           SKY/WX    TMP DP  RH WIND       PRES   REMARKS
VALENTINE      PTSUNNY   63  19  18 N8        30.04S
AINSWORTH      PTSUNNY   63  31  30 NE10      30.03S
ONEILL         PTSUNNY   64  36  36 NE8G16    30.02S
BROKEN BOW     CLOUDY    63  46  54 E10       30.00R
IMPERIAL       PTSUNNY   67  40  37 N15       30.02S
NORTH PLATTE   CLOUDY    65  42  43 NE17G24   30.01S
MCCOOK         PTSUNNY   67  48  50 NE16      29.97R

...EASTERN NEBRASKA...

CITY           SKY/WX    TMP DP  RH WIND       PRES   REMARKS
NORFOLK        PTSUNNY   70  47  43 VRB6      29.98F
SO SIOUX CITY  PTSUNNY   77  47  34 SW18G28   29.98F
TEKAMAH        MOSUNNY   80  46  30 SW23G32   29.98F
COLUMBUS       CLOUDY    72  48  43 S16G22    29.99S
ALBION         CLOUDY    66  46  48 SW5       29.99F
OMAHA EPPLEY   CLOUDY    77  44  30 S16G28    30.00F
OFFUTT AFB     PTSUNNY   77  45  31 S17G24    30.01F
MILLARD        PTSUNNY   75  46  36 S15G25    30.01F
LINCOLN        PTSUNNY   79  47  32 S23G31    29.98F
NEBRASKA CITY  PTSUNNY   75  43  31 S23G29    30.02F
BEATRICE       PTSUNNY   78  47  33 S23G30    30.00S
FALLS CITY     NOT AVBL

...NORTHERN KANSAS...

CITY           SKY/WX    TMP DP  RH WIND       PRES   REMARKS
GOODLAND       PTSUNNY   70  46  42 NE21G28   29.97F
HILL CITY      CLOUDY    78  46  32 SW9G17    29.91F
PHILLIPSBURG   SUNNY     79  45  29 SE10G16   29.91F
SMITH CENTER   SUNNY     79  48  34 S15G24    29.93F
BELOIT         SUNNY     81  48  32 S23G32    29.93F
HAYS           PTSUNNY   81  52  36 S28G36    29.91F
RUSSELL        PTSUNNY   81  49  32 S30G40    29.92F
CONCORDIA      MOSUNNY   77  49  37 S23G37    29.97F
SALINA         SUNNY     78  48  34 S26G37    29.99F
TOPEKA         SUNNY     77  44  30 S15G28    30.08F



USA.gov is the U.S. government's official web portal to all federal, state and local government web resources and services.